Date String (YYYY-MM-DD hh:mm:ss) UTC,Instrument flags,Ambient pressure (hPa),Sample flow (lpm),Bypass flow (lpm),Sample temperature (°C),Ambient temperature (°C),ASC tube jacket temperature (°C),LED temperature (°C),Box temperature (°C),Sample RH (%),Span deviation,Mass concentration (μg/m³),Mass concentration (μg/m³),Mass concentration (μg/m³)
DateTimeUTC,F1_M11,P_M11,Q1_M11,Q2_M11,T1_M11,T2_M11,T3_M11,T4_M11,T5_M11,U1_M11,ZSPAN_M11,X0_M11,X2_M11,X1_M11
2023-05-14 00:00:00,,0837.5,5.00,0.00,30.4,28.9,00.0,38.7,31.9,22.4,0000.0,0002.28,0001.49,0001.31
2023-05-14 00:01:00,,0837.5,4.99,0.00,30.4,28.9,00.0,38.7,31.9,22.5,0000.0,0002.35,0001.51,0001.32
2023-05-14 00:02:00,,0837.5,4.99,0.00,30.4,28.9,00.0,38.7,31.9,22.6,0000.0,0002.46,0001.53,0001.32
2023-05-14 00:03:00,,0837.5,4.99,0.00,30.4,28.9,00.0,38.7,31.9,22.6,0000.0,0002.47,0001.53,0001.32
2023-05-14 00:04:00,,0837.5,5.02,0.00,30.4,28.9,00.0,38.7,31.9,22.4,0000.0,0002.17,0001.52,0001.32
2023-05-14 00:05:00,,0837.5,5.00,0.00,30.4,28.9,00.0,38.8,31.9,22.3,0000.0,0001.77,0001.49,0001.33
2023-05-14 00:06:00,,0837.5,5.00,0.00,30.4,28.9,00.0,38.8,31.9,22.3,0000.0,0001.76,0001.48,0001.32
2023-05-14 00:07:00,,0837.5,5.00,0.00,30.4,28.9,00.0,38.8,31.9,22.3,0000.0,0001.79,0001.49,0001.32
2023-05-14 00:08:00,,0837.5,5.00,0.00,30.4,28.9,00.0,38.8,32.0,22.5,0000.0,0001.77,0001.48,0001.31
2023-05-14 00:09:00,,0837.4,5.00,0.00,30.4,28.9,00.0,38.8,32.0,22.4,0000.0,0002.15,0001.50,0001.31
2023-05-14 00:10:00,,0837.5,5.00,0.00,30.4,28.9,00.0,38.8,32.0,22.4,0000.0,0002.45,0001.50,0001.30
2023-05-14 00:11:00,,0837.4,5.00,0.00,30.4,28.9,00.0,38.8,32.0,22.5,0000.0,0002.94,0001.48,0001.30
2023-05-14 00:12:00,,0837.5,4.99,0.00,30.4,28.9,00.0,38.8,32.0,22.4,0000.0,0002.93,0001.45,0001.28
2023-05-14 00:13:00,,0837.5,5.00,0.00,30.4,28.9,00.0,38.8,32.0,22.4,0000.0,0002.78,0001.43,0001.28
2023-05-14 00:14:00,,0837.5,5.00,0.00,30.4,28.9,00.0,38.8,32.0,22.3,0000.0,0002.81,0001.43,0001.27
2023-05-14 00:15:00,,0837.5,5.01,0.00,30.4,28.9,00.0,38.8,32.0,22.3,0000.0,0002.86,0001.44,0001.26
2023-05-14 00:16:00,,0837.6,5.00,0.00,30.4,29.0,00.0,38.8,32.0,22.3,0000.0,0002.85,0001.43,0001.25
2023-05-14 00:17:00,,0837.5,5.00,0.00,30.5,29.0,00.0,38.8,32.0,22.3,0000.0,0002.80,0001.40,0001.24
2023-05-14 00:18:00,,0837.6,5.00,0.00,30.5,28.9,00.0,38.8,32.0,22.0,0000.0,0002.82,0001.36,0001.23
2023-05-14 00:19:00,,0837.5,5.00,0.00,30.5,28.9,00.0,38.8,32.0,21.9,0000.0,0002.80,0001.36,0001.24
2023-05-14 00:20:00,,0837.6,5.00,0.00,30.5,28.9,00.0,38.8,32.0,22.3,0000.0,0002.58,0001.34,0001.23
2023-05-14 00:21:00,,0837.5,5.00,0.00,30.5,28.9,00.0,38.8,32.0,22.2,0000.0,0002.22,0001.29,0001.21
2023-05-14 00:22:00,,0837.5,5.00,0.00,30.5,28.9,00.0,38.8,32.0,22.0,0000.0,0001.81,0001.29,0001.21
2023-05-14 00:23:00,,0837.6,5.01,0.00,30.5,29.0,00.0,38.8,32.0,21.9,0000.0,0001.65,0001.30,0001.22
2023-05-14 00:24:00,,0837.6,5.00,0.00,30.5,29.0,00.0,38.8,32.0,22.2,0000.0,0001.67,0001.31,0001.23
2023-05-14 00:25:00,,0837.6,4.98,0.00,30.5,29.0,00.0,38.8,32.0,22.3,0000.0,0001.80,0001.30,0001.24
2023-05-14 00:26:00,,0837.6,5.00,0.00,30.5,29.0,00.0,38.8,32.0,22.4,0000.0,0001.92,0001.30,0001.24
2023-05-14 00:27:00,,0837.6,5.01,0.00,30.5,28.9,00.0,38.8,32.0,22.5,0000.0,0002.25,0001.32,0001.25
2023-05-14 00:28:00,,0837.6,5.00,0.00,30.5,28.9,00.0,38.8,32.0,22.5,0000.0,0002.76,0001.37,0001.26
2023-05-14 00:29:00,,0837.7,5.00,0.00,30.5,28.9,00.0,38.8,32.0,22.6,0000.0,0002.82,0001.40,0001.27
2023-05-14 00:30:00,,0837.6,5.02,0.00,30.5,28.9,00.0,38.9,32.0,22.8,0000.0,0002.93,0001.41,0001.28
2023-05-14 00:31:00,,0837.6,5.00,0.00,30.5,28.9,00.0,38.8,32.0,22.8,0000.0,0002.95,0001.44,0001.30
2023-05-14 00:32:00,,0837.6,5.00,0.00,30.5,28.9,00.0,38.9,32.0,23.1,0000.0,0002.92,0001.50,0001.33
2023-05-14 00:33:00,,0837.6,4.99,0.00,30.5,28.9,00.0,38.9,32.0,23.2,0000.0,0003.95,0001.54,0001.36
2023-05-14 00:34:00,,0837.7,4.99,0.00,30.5,28.9,00.0,38.9,32.0,23.0,0000.0,0004.38,0001.58,0001.38
2023-05-14 00:35:00,,0837.7,5.00,0.00,30.5,28.9,00.0,38.9,32.0,22.8,0000.0,0004.39,0001.60,0001.39
2023-05-14 00:36:00,,0837.7,4.99,0.00,30.5,28.9,00.0,38.9,32.0,22.6,0000.0,0004.22,0001.61,0001.39
2023-05-14 00:37:00,,0837.7,5.01,0.00,30.5,28.9,00.0,38.9,32.0,22.7,0000.0,0004.19,0001.64,0001.40
2023-05-14 00:38:00,,0837.7,5.01,0.00,30.5,28.9,00.0,38.9,32.0,22.8,0000.0,0003.99,0001.67,0001.42
2023-05-14 00:39:00,,0837.7,5.00,0.00,30.5,28.9,00.0,38.9,32.0,23.1,0000.0,0003.54,0001.67,0001.43
2023-05-14 00:40:00,,0837.7,5.00,0.00,30.5,28.9,00.0,38.9,32.0,23.7,0000.0,0003.57,0001.67,0001.43
2023-05-14 00:41:00,,0837.7,4.99,0.00,30.5,28.9,00.0,38.9,32.0,24.1,0000.0,0003.68,0001.66,0001.43
2023-05-14 00:42:00,,0837.7,4.99,0.00,30.4,28.8,00.0,38.9,32.0,24.6,0000.0,0003.73,0001.67,0001.41
2023-05-14 00:43:00,,0837.7,4.99,0.00,30.4,28.8,00.0,38.9,32.0,24.9,0000.0,0003.70,0001.63,0001.38
2023-05-14 00:44:00,,0837.7,5.00,0.00,30.4,28.8,00.0,38.9,32.0,24.5,0000.0,0002.93,0001.63,0001.36
2023-05-14 00:45:00,,0837.7,5.01,0.00,30.4,28.7,00.0,38.9,31.9,24.5,0000.0,0003.07,0001.68,0001.34
2023-05-14 00:46:00,,0837.7,4.98,0.00,30.4,28.7,00.0,38.8,31.9,24.7,0000.0,0003.54,0001.72,0001.32
2023-05-14 00:47:00,,0837.8,5.00,0.00,30.4,28.6,00.0,38.8,31.9,24.7,0000.0,0003.54,0001.71,0001.31
2023-05-14 00:48:00,,0837.8,5.01,0.00,30.4,28.6,00.0,38.8,31.8,24.7,0000.0,0003.54,0001.71,0001.31
2023-05-14 00:49:00,,0837.8,5.00,0.00,30.3,28.5,00.0,38.8,31.8,24.7,0000.0,0003.52,0001.68,0001.28
2023-05-14 00:50:00,,0837.8,4.99,0.00,30.3,28.5,00.0,38.8,31.8,24.8,0000.0,0003.46,0001.65,0001.26
2023-05-14 00:51:00,,0837.8,5.00,0.00,30.3,28.5,00.0,38.8,31.7,24.8,0000.0,0003.47,0001.68,0001.25
2023-05-14 00:52:00,,0837.8,5.02,0.00,30.3,28.4,00.0,38.8,31.8,24.8,0000.0,0004.17,0001.72,0001.24
2023-05-14 00:53:00,,0837.8,4.99,0.00,30.3,28.4,00.0,38.8,31.8,24.9,0000.0,0005.26,0001.75,0001.24
2023-05-14 00:54:00,,0837.9,4.99,0.00,30.3,28.5,00.0,38.8,31.7,25.1,0000.0,0005.38,0001.78,0001.25
2023-05-14 00:55:00,,0837.9,5.00,0.00,30.2,28.5,00.0,38.8,31.7,25.1,0000.0,0005.40,0001.79,0001.24
2023-05-14 00:56:00,,0837.9,4.99,0.00,30.2,28.5,00.0,38.7,31.7,25.1,0000.0,0004.87,0001.72,0001.25
2023-05-14 00:57:00,,0838.0,5.00,0.00,30.2,28.5,00.0,38.7,31.7,25.1,0000.0,0004.56,0001.71,0001.26
2023-05-14 00:58:00,,0838.0,5.01,0.00,30.2,28.5,00.0,38.7,31.8,25.1,0000.0,0004.60,0001.73,0001.25
2023-05-14 00:59:00,,0838.0,5.00,0.00,30.2,28.5,00.0,38.7,31.7,25.2,0000.0,0004.60,0001.72,0001.25
